PDT,Max TemperatureF,Mean TemperatureF,Min TemperatureF,Max Dew PointF,MeanDew PointF,Min DewpointF,Max Humidity, Mean Humidity, Min Humidity, Max Sea Level PressureIn, Mean Sea Level PressureIn, Min Sea Level PressureIn, Max VisibilityMiles, Mean VisibilityMiles, Min VisibilityMiles, Max Wind SpeedMPH, Mean Wind SpeedMPH, Max Gust SpeedMPH,PrecipitationIn, CloudCover, Events, WindDirDegrees
2013-3-1,74,58,41,48,46,42,100,71,41,30.42,30.33,30.25,10,9,5,9,1,13,0.00,0,,14
2013-3-2,74,60,45,53,48,43,93,67,41,30.26,30.15,30.04,10,8,6,9,3,13,0.00,0,,132
2013-3-3,70,63,55,52,47,42,86,63,40,30.08,30.04,30.01,10,8,4,17,4,33,0.00,5,,322
2013-3-4,69,56,43,49,45,42,92,70,48,30.13,30.07,30.02,10,10,9,13,4,28,0.00,0,,325
2013-3-5,68,56,44,44,38,27,92,57,21,30.06,29.97,29.88,10,10,10,14,5,21,0.00,1,,200
2013-3-6,59,54,48,46,40,36,83,64,44,30.08,30.01,29.92,10,10,8,15,8,21,0.06,5,Rain,152
2013-3-7,60,52,43,47,40,35,89,65,40,30.00,29.92,29.85,10,10,10,16,3,,0.00,4,Rain,97
2013-3-8,65,55,44,47,39,30,93,64,34,30.05,29.88,29.81,10,10,7,20,6,29,0.00,2,,313
2013-3-9,68,54,39,44,37,27,96,64,32,30.29,30.20,30.06,10,9,5,22,5,30,0.00,0,,320
2013-3-10,67,52,37,45,39,35,100,67,34,30.36,30.31,30.25,10,7,0,12,3,18,0.00,0,Fog,125
2013-3-11,72,56,39,46,42,38,100,65,29,30.26,30.19,30.10,10,9,5,9,1,,0.00,0,,360
2013-3-12,77,60,43,48,46,43,100,67,33,30.16,30.11,30.05,10,9,5,9,2,29,0.00,0,,90
2013-3-13,81,63,45,54,49,45,100,64,28,30.18,30.11,30.06,10,8,4,10,2,14,0.00,0,,73
2013-3-14,79,64,49,53,50,44,96,68,40,30.14,30.09,30.06,10,8,4,16,3,43,0.00,0,,323
2013-3-15,75,63,51,53,47,43,77,59,41,30.09,30.05,30.00,10,10,10,14,7,,0.00,0,,327
2013-3-16,78,64,50,48,44,37,83,54,24,30.07,30.02,29.97,10,10,10,15,8,21,0.00,0,,327
2013-3-17,73,63,52,42,38,28,64,42,20,30.11,30.05,30.01,10,10,10,18,12,34,0.00,0,,320
2013-3-18,72,59,45,44,41,37,86,58,29,30.10,30.05,30.01,10,10,10,9,3,,0.00,0,,313
2013-3-19,76,62,48,52,41,33,86,56,25,30.15,30.08,30.04,10,10,6,23,4,40,0.07,2,Rain,351
2013-3-20,74,64,54,54,52,45,93,66,38,30.12,30.09,30.06,10,10,10,13,3,30,0.02,6,Rain,342
2013-3-21,67,56,45,49,43,28,89,61,32,30.10,30.05,29.98,10,10,10,22,11,36,0.00,1,,321
2013-3-22,68,58,47,33,24,16,46,30,14,30.08,30.03,29.99,10,10,10,24,16,30,0.00,0,,306
2013-3-23,69,56,43,38,28,21,57,37,17,30.15,30.08,30.04,10,10,10,28,10,29,0.00,0,,313
2013-3-24,76,57,38,43,38,33,92,58,23,30.09,30.02,29.94,10,10,10,10,1,17,0.00,0,,314
2013-3-25,76,61,46,47,43,38,86,58,29,30.00,29.95,29.89,10,10,10,9,4,18,0.00,0,,350
2013-3-26,73,61,49,48,44,43,74,55,35,29.99,29.95,29.90,10,10,10,13,8,134,0.00,3,,333
2013-3-27,75,64,52,52,48,45,77,58,38,30.02,29.95,29.92,10,10,10,12,7,21,0.00,3,,332
2013-3-28,75,65,54,52,50,48,86,65,44,30.08,30.04,30.01,10,10,10,10,4,,T,3,Rain,319
2013-3-29,81,67,53,53,50,45,89,59,28,30.10,30.05,29.99,10,10,10,9,6,,0.00,0,,306
2013-3-30,79,68,57,54,51,48,80,58,36,30.04,30.00,29.93,10,10,8,12,5,15,0.00,2,Rain-Thunderstorm,341
2013-3-31,72,62,52,57,53,45,100,71,41,30.09,30.05,29.97,10,6,2,28,4,56,0.49,6,Rain,139